SL-8 DEB, 2334

Orbit data source: Space-Track

SL-8 DEB, 2334 is space debris in LEO originally from a launch on Mon, 15 Mar 1965 UTC launched from the Tyuratam Missile And Space Complex (TTMTR). Debris objects in space refer to the collection of defunct objects orbiting the Earth. Examples of debris include non-operational satellites, rocket bodies, and fragments generated from explosions, collisions, or faulty payload assembly.

Loading next visibility...
SL-8 DEB details
Identifier
2334, 1965-020EH
Orbit
LEO
Last TLE update1 day ago
Origin
Flag of CISRVSN (CIS)
ManufacturerUnknown
MissionSpacecraft
Bus & MotorUnknown
MassUnknown
Launch date (UTC)
1965-03-15 (60 years ago)
Launch vehicleUnknown
Launch site
Tyuratam Missile And Space Complex (TTMTR)
Object type
Payload
Rocket body
Debris
Shape & HBRUnknown
Radar Cross SectionSmall (<0.1 m²)

Expand to show TLE details & history

TLE from 1 day ago
0 SL-8 DEB
1 02334U 65020EH  25039.36252210  .00001752  00000-0  22320-2 0  9991
2 02334  55.6765  40.7794 0583300 306.3051  48.5347 13.11586426786139
Epoch: 2025-02-08T08:42Z
Definitive object data (Epoch: 2025-02-08T08:42:01.909Z)
Latitude-0°
Longitude131.55996°
Altitude940.114 km
Speed7.516 km/s
True Right ascension02h 43m 07s
True Declination0° 00' 00"
Sunlit
Object was in daylight at TLE epoch
Visualization TLE readout
Latitude-42.42035°
Longitude-13.97791°
Altitude1,084.948 km
Speed7.38 km/s
Apparent Right ascension13h 59m 45s
Apparent Declination-84° 03' 58"
Sunlit
Object is in daylight
Visualization observer readout
Local Sidereal Time17:32:27
Azimuth185.886° SSW
Elevation-36.207°
Doppler factor1
Orbital elements
Apogee altitude1,659.917 km
Perigee altitude773.88 km
Semi-major axis7,595.035 km
Eccentricity0.05833
Inclination55.6765°
RAAN40.7794°
Arg. of periapsis306.3051°
True anomaly53.78962°
Mean anomaly48.5347°
Eccentric anomaly51.13699°
Mean motion3.27905 °/min
BSTAR0.002232
Orbital period109.79 mins
Loading maneuver chart data...
Loading historical data...
Loading historical data...
Loading historical data...
Loading historical data...
Loading historical data...
Loading historical data...
Loading historical data...

SL-8 DEB Visibility forecast

Observer location: undefined°, undefined

Span
Click to sort rows by Start time (UTC) header in descending order
Start Az.
Max El. time (UTC)
Max El. Az.
Max El.
End time (UTC)
End Az.
13 mins2025-02-10 01:03:04.386Z186.116° SSW2025-02-10 01:09:04.386Z122.976° SE32.291°2025-02-10 01:16:04.386Z58.747° ENE
14 mins2025-02-10 02:58:04.386Z249.152° W2025-02-10 03:03:04.386Z310.475° NW40.964°2025-02-10 03:12:04.386Z43.072° NE
14 mins2025-02-10 04:54:04.386Z294.966° NW2025-02-10 05:00:04.386Z348.835° N27.814°2025-02-10 05:08:04.386Z47.773° ENE
15 mins2025-02-10 06:51:04.386Z319.51° NNW2025-02-10 06:58:04.386Z19.184° NNE29.162°2025-02-10 07:06:04.386Z75.275° E
18 mins2025-02-10 08:46:04.386Z318.134° NNW2025-02-10 08:54:04.386Z27.433° NE42.308°2025-02-10 09:04:04.386Z119.326° SE
17 mins2025-02-10 10:41:04.386Z302.403° NW2025-02-10 10:49:04.386Z240° WSW35.715°2025-02-10 10:58:04.386Z169.357° S
|